TimeCST,TemperatureF,Dew PointF,Humidity,Sea Level PressureIn,VisibilityMPH,Wind Direction,Wind SpeedMPH,Gust SpeedMPH,PrecipitationIn,Events,Conditions,WindDirDegrees,DateUTC
12:53 AM,33.1,30.9,92,30.02,10.0,Calm,Calm,-,N/A,,Clear,0,2013-02-14 06:53:00
1:53 AM,34.0,32.0,92,30.03,10.0,Calm,Calm,-,N/A,,Clear,0,2013-02-14 07:53:00
2:53 AM,36.0,33.1,89,30.01,10.0,Calm,Calm,-,N/A,,Clear,0,2013-02-14 08:53:00
3:53 AM,34.0,32.0,92,30.00,10.0,Calm,Calm,-,N/A,,Clear,0,2013-02-14 09:53:00
4:53 AM,33.1,30.9,92,30.02,10.0,Calm,Calm,-,N/A,,Clear,0,2013-02-14 10:53:00
5:53 AM,30.0,28.9,96,30.02,9.0,Calm,Calm,-,N/A,,Clear,0,2013-02-14 11:53:00
6:53 AM,30.0,28.0,92,30.06,9.0,Calm,Calm,-,N/A,,Clear,0,2013-02-14 12:53:00
7:53 AM,30.9,28.9,92,30.08,8.0,Calm,Calm,-,N/A,,Clear,0,2013-02-14 13:53:00
8:53 AM,39.0,36.0,89,30.08,10.0,Calm,Calm,-,N/A,,Clear,0,2013-02-14 14:53:00
9:53 AM,51.1,37.0,59,30.06,10.0,Variable,3.5,-,N/A,,Clear,0,2013-02-14 15:53:00
10:53 AM,57.0,34.0,42,30.05,10.0,Variable,4.6,-,N/A,,Clear,0,2013-02-14 16:53:00
11:53 AM,61.0,32.0,34,30.04,10.0,Variable,6.9,-,N/A,,Clear,0,2013-02-14 17:53:00
12:53 PM,62.1,28.9,29,30.02,10.0,Variable,4.6,-,N/A,,Clear,0,2013-02-14 18:53:00
1:53 PM,63.0,28.0,27,30.00,10.0,Variable,4.6,-,N/A,,Clear,0,2013-02-14 19:53:00
2:53 PM,64.0,27.0,25,29.99,10.0,Variable,6.9,-,N/A,,Clear,0,2013-02-14 20:53:00
3:53 PM,64.9,26.1,23,29.99,10.0,Variable,4.6,-,N/A,,Clear,0,2013-02-14 21:53:00
4:53 PM,63.0,28.0,27,30.00,10.0,Variable,3.5,-,N/A,,Clear,0,2013-02-14 22:53:00
5:53 PM,57.0,33.1,40,30.01,10.0,Calm,Calm,-,N/A,,Clear,0,2013-02-14 23:53:00
6:53 PM,53.1,32.0,45,30.03,10.0,Calm,Calm,-,N/A,,Clear,0,2013-02-15 00:53:00
7:53 PM,50.0,33.1,52,30.04,10.0,Calm,Calm,-,N/A,,Clear,0,2013-02-15 01:53:00
8:53 PM,45.0,34.0,65,30.05,10.0,Calm,Calm,-,N/A,,Clear,0,2013-02-15 02:53:00
9:53 PM,41.0,35.1,79,30.07,10.0,Calm,Calm,-,N/A,,Clear,0,2013-02-15 03:53:00
10:53 PM,39.9,35.1,83,30.07,10.0,Calm,Calm,-,N/A,,Clear,0,2013-02-15 04:53:00
11:53 PM,45.0,34.0,65,30.08,10.0,Calm,Calm,-,N/A,,Overcast,0,2013-02-15 05:53:00